Regional Weather Roundup
Issued by NWS

Home | Current Version | Previous Version | Text Only | Print | Product List | Glossary Off
Versions: 1 2 3 4 5 6 7 8 9 10 11 12 13 14 15 16 17 18 19 20 21 22 23 24 25 26 27 28 29 30 31 32 33 34 35 36 37 38 39 40 41 42 43 44 45 46 47 48 49 50

218
ASUS43 KFSD 082210
RWRSD

WEATHER ROUNDUP FOR SOUTH DAKOTA
NATIONAL WEATHER SERVICE SIOUX FALLS SD
400 PM CST THU DEC 08 2016

NOTE: "FAIR" INDICATES FEW OR NO CLOUDS BELOW 12,000 FEET WITH NO
SIGNIFICANT WEATHER AND/OR OBSTRUCTIONS TO VISIBILITY.


SDZ001>005-009-010-012>017-082300-
NORTHWEST AND NORTH CENTRAL SOUTH DAKOTA

CITY           SKY/WX    TMP DP  RH WIND       PRES   REMARKS
BUFFALO          N/A      6  -4  63 NW10      30.42S WCI  -9
FAITH            N/A      2  -4  76 NW9       30.55S WCI -13
MOBRIDGE       PTCLDY     4  -5  66 NW12      30.60R WCI -12
$$

SDZ012>016-024>037-041>051-057-063-072>074-082300-
SOUTHWEST AND SOUTH CENTRAL SOUTH DAKOTA

CITY           SKY/WX    TMP DP  RH WIND       PRES   REMARKS
RAPID CTY ARPT CLEAR     13  -4  46 NE5       30.49F WCI   5
PIERRE         CLOUDY     7   1  76 N10       30.62S WCI  -8
CUSTER         CLOUDY    10  -7  46 VRB6      30.25R WCI   0
ELLSWORTH AFB  CLEAR     12  -4  48 N5        30.48S WCI   4
PHILIP         CLEAR     11  -2  56 N8        30.60R WCI  -1
PINE RIDGE     SUNNY     10  -3  55 E5        30.49F WCI   2
SPEARFISH      FAIR       5  -4  66 E3        30.42S
WINNER         FAIR      14   0  53 NW13      30.61R WCI   0
$$

SDZ004>011-016>023-039-040-082300-
NORTHEAST SOUTH DAKOTA

CITY           SKY/WX    TMP DP  RH WIND       PRES   REMARKS
ABERDEEN       CLEAR     12   1  61 NW13      30.61R WCI  -3
WATERTOWN      PTCLDY    12   5  73 NW15      30.52R WCI  -4
BROOKINGS      CLEAR     13   6  74 NW14G23   30.53R WCI  -2
SISSETON         N/A     12   4  70 NW21      30.56R WCI  -7
$$

SDZ017-020-022-023-036>040-048>070-082300-
SOUTHEAST SOUTH DAKOTA

CITY           SKY/WX    TMP DP  RH WIND       PRES   REMARKS
SIOUX FALLS    PTCLDY    18   8  65 NW18      30.56R WCI   2
HURON          CLEAR     14   4  64 NW15      30.62R WCI  -1
CHAMBERLAIN    CLEAR     13   5  70 NW13G22   30.63R WCI  -2
MITCHELL       CLEAR     17   5  59 NW14      30.63R WCI   3
YANKTON        CLEAR     19   5  53 NW18G24   30.60S WCI   4
$$

ABBREVIATIONS USED IN REMARKS
   TC - TEMPERATURE IN CELSIUS
  WCI - WIND CHILL INDEX
   HX - HEAT INDEX
  VSB - VISIBILITY





USA.gov is the U.S. government's official web portal to all federal, state and local government web resources and services.